Weather in Chistovskoe

Kazakhstan     54°53′50″N   70°37′37″E
temp.,
°C
wind,
m/s
gust,
m/s
humid.,
%
clouds,
%
prec.,
mm/h
press.,
hPa
HPBL,
m
21 april, wed
wed2100:000wsw6145391 0.0 1026345
03:00+1w6145867 0.0 1024344
06:00−1nw4107519 0.0 1025227
09:00+3n57695 0.0 1026555
12:00+6nnw684453 0.0 10271343
15:00+8nnw79385 0.0 10281712
18:00+7nne78395 0.0 10301738
21:00+4ne48565 0.0 1034223
22 april, thu
thu2200:00+1ene37670 0.0 1036233
03:00−1e36720 0.0 1038196
06:00−2e36720 0.0 1041232
09:00+1ese34500 0.0 1043679
12:00+4se34390 0.0 10431135
15:00+7se44335 0.0 10431263
18:00+7sse44335 0.0 10421422
21:00+4sse36480 0.0 104396
23 april, fri
fri2300:00+2se4105663 0.0 1043185
03:00+1sse41163100 0.0 1043221
06:000sse41070100 0.0 1043201
09:00+4s695114 0.0 1044504
12:00+8s67384 0.0 10421172
15:00+11s673051 0.0 10411636
18:00+11s5628100 0.0 10391652
21:00+7se3643100 0.0 1039112
24 april, sat
sat2400:00+5sse5124988 0.0 1038291
03:00+4sse51252100 0.0 1037283
06:00+2sse41161100 0.0 1036204
09:00+5sse5948100 0.0 1036376
12:00+10sse6732100 0.0 10341153
15:00+11sse6727100 0.0 10321570
18:00+11sse4629100 0.0 10311585
21:00+8se3839100 0.0 1030171
25 april, sun
sun2500:00+7se51244100 0.0 1029343
03:00+6se51248100 0.0 1027339
06:00+6se51250100 0.0 1026315
09:00+8se7134699 0.0 1024485
12:00+13sse8103191 0.0 10221228
15:00+15sse81122100 0.0 10192114
18:00+15s71026100 0.0 10182302
21:00+12se51033100 0.0 1017216